QPF
0.00 0.00 0.00 0.00 0.00 0.00 0.00 0.00 0.00 0.00 0.00 0.00 0.00 0.00 0.00 0.00 0.00 0.00 0.00 0.00 0.00 0.00 0.00 0.00 0.00 0.00 0.00 0.00 0.00 0.00 0.00 0.01 0.01 0.01 0.01 0.01 0.01 0.01 0.01 0.01 0.01 0.01 0.01 0.01 0.01 0.01 0.00 0.00 0.00
0.00 0.00 0.00 0.00 0.00 0.00 0.00 0.00 0.00 0.00 0.00 0.00 0.00 0.00 0.00 0.00 0.00 0.00 0.00 0.00 0.00 0.00 0.00 0.00 0.00 0.00 0.00 0.00 0.00 0.00 0.00 0.00 0.00 0.00 0.00 0.00 0.00 0.00 0.01 0.00 0.00 0.01 0.01 0.01 0.01 0.01 0.00 0.00 0.00
0.00 0.00 0.00 0.00 0.00 0.00 0.00 0.00 0.00 0.00 0.00 0.00 0.00 0.00 0.00 0.00 0.00 0.00 0.00 0.00 0.00 0.00 0.00 0.00 0.00 0.00 0.00 0.00 0.00 0.00 0.00 0.00 0.00 0.00 0.00 0.00 0.00 0.00 0.00 0.00 0.00 0.00 0.01 0.01 0.01 0.01 0.01 0.00 0.00
0.00 0.00 0.00 0.00 0.00 0.00 0.00 0.00 0.00 0.00 0.00 0.00 0.00 0.00 0.00 0.00 0.00 0.00 0.00 0.00 0.00 0.00 0.00 0.00 0.00 0.00 0.00 0.00 0.00 0.00 0.00 0.00 0.00 0.00 0.00 0.00 0.00 0.00 0.00 0.00 0.00 0.00 0.00 0.01 0.01 0.01 0.01 0.00 0.00
0.00 0.00 0.00 0.00 0.00 0.00 0.00 0.00 0.00 0.00 0.00 0.00 0.00 0.00 0.00 0.00 0.00 0.00 0.00 0.00 0.00 0.00 0.00 0.00 0.00 0.00 0.00 0.00 0.00 0.00 0.00 0.00 0.00 0.00 0.00 0.00 0.00 0.00 0.00 0.00 0.00 0.00 0.00 0.00 0.00 0.00 0.00 0.00 0.00
0.00 0.00 0.00 0.00 0.00 0.00 0.00 0.00 0.00 0.00 0.00 0.00 0.00 0.00 0.00 0.00 0.00 0.00 0.00 0.00 0.00 0.00 0.00 0.00 0.00 0.00 0.00 0.00 0.00 0.00 0.00 0.00 0.00 0.00 0.00 0.00 0.00 0.00 0.00 0.00 0.00 0.00 0.00 0.00 0.00 0.00 0.00 0.00 0.00
0.00 0.00 0.00 0.00 0.00 0.00 0.00 0.00 0.00 0.00 0.00 0.00 0.00 0.00 0.00 0.00 0.00 0.00 0.00 0.00 0.00 0.00 0.00 0.00 0.00 0.00 0.00 0.00 0.00 0.00 0.00 0.00 0.00 0.00 0.00 0.00 0.00 0.00 0.00 0.00 0.00 0.00 0.00 0.00 0.00 0.00 0.00 0.00 0.00
0.00 0.00 0.00 0.00 0.00 0.00 0.00 0.00 0.00 0.00 0.00 0.00 0.00 0.00 0.00 0.00 0.00 0.00 0.00 0.00 0.00 0.00 0.00 0.00 0.00 0.00 0.00 0.00 0.00 0.00 0.00 0.00 0.00 0.00 0.00 0.00 0.00 0.00 0.00 0.00 0.00 0.00 0.00 0.00 0.00 0.00 0.00 0.00 0.00
0.00 0.00 0.00 0.00 0.00 0.00 0.00 0.00 0.00 0.00 0.00 0.00 0.00 0.00 0.00 0.00 0.00 0.00 0.00 0.00 0.00 0.00 0.00 0.00 0.00 0.00 0.00 0.00 0.00 0.00 0.00 0.00 0.00 0.00 0.00 0.00 0.00 0.00 0.00 0.00 0.00 0.00 0.00 0.00 0.00 0.00 0.00 0.00 0.00
0.00 0.00 0.00 0.00 0.00 0.00 0.00 0.00 0.00 0.00 0.00 0.00 0.00 0.00 0.00 0.00 0.00 0.00 0.00 0.00 0.00 0.00 0.00 0.00 0.00 0.00 0.00 0.00 0.00 0.00 0.00 0.00 0.00 0.00 0.00 0.00 0.00 0.00 0.00 0.00 0.00 0.00 0.00 0.00 0.00 0.00 0.00 0.00 0.00
0.00 0.00 0.00 0.00 0.00 0.00 0.00 0.00 0.00 0.00 0.00 0.00 0.00 0.00 0.00 0.00 0.00 0.00 0.00 0.00 0.00 0.00 0.00 0.00 0.00 0.00 0.00 0.00 0.00 0.00 0.00 0.00 0.00 0.00 0.00 0.00 0.00 0.00 0.00 0.00 0.00 0.00 0.00 0.00 0.00 0.00 0.00 0.00 0.00
0.00 0.00 0.00 0.00 0.00 0.00 0.00 0.00 0.00 0.00 0.00 0.00 0.00 0.00 0.00 0.00 0.00 0.00 0.00 0.00 0.00 0.00 0.00 0.00 0.00 0.00 0.00 0.00 0.00 0.00 0.00 0.00 0.00 0.00 0.00 0.00 0.00 0.00 0.00 0.00 0.00 0.00 0.00 0.00 0.00 0.00 0.00 0.00 0.00
0.00 0.00 0.00 0.00 0.00 0.00 0.00 0.00 0.00 0.00 0.00 0.00 0.00 0.00 0.00 0.00 0.00 0.00 0.00 0.00 0.00 0.00 0.00 0.00 0.00 0.00 0.00 0.00 0.00 0.00 0.00 0.00 0.00 0.00 0.00 0.00 0.00 0.00 0.00 0.00 0.00 0.00 0.00 0.00 0.00 0.00 0.00 0.00 0.00
0.00 0.00 0.00 0.00 0.00 0.00 0.00 0.00 0.00 0.00 0.00 0.00 0.00 0.00 0.00 0.00 0.00 0.00 0.00 0.00 0.00 0.00 0.00 0.00 0.00 0.00 0.00 0.00 0.00 0.00 0.00 0.00 0.00 0.00 0.00 0.00 0.00 0.00 0.00 0.00 0.00 0.00 0.00 0.00 0.00 0.00 0.00 0.00 0.00
0.00 0.00 0.00 0.00 0.00 0.00 0.00 0.00 0.00 0.00 0.00 0.00 0.00 0.00 0.00 0.00 0.00 0.00 0.00 0.00 0.00 0.00 0.00 0.00 0.00 0.00 0.00 0.00 0.00 0.00 0.00 0.00 0.00 0.00 0.00 0.00 0.00 0.00 0.00 0.00 0.00 0.00 0.00 0.00 0.00 0.00 0.00 0.00 0.00
0.00 0.00 0.00 0.00 0.00 0.00 0.00 0.00 0.00 0.00 0.00 0.00 0.00 0.00 0.00 0.00 0.00 0.00 0.00 0.00 0.00 0.00 0.00 0.00 0.00 0.00 0.00 0.00 0.00 0.00 0.00 0.00 0.00 0.00 0.00 0.00 0.00 0.00 0.00 0.00 0.00 0.00 0.00 0.00 0.00 0.00 0.00 0.00 0.00
0.00 0.00 0.00 0.00 0.00 0.00 0.00 0.00 0.00 0.00 0.00 0.00 0.00 0.00 0.00 0.00 0.00 0.00 0.00 0.00 0.00 0.00 0.00 0.00 0.00 0.00 0.00 0.00 0.00 0.00 0.00 0.00 0.00 0.00 0.00 0.00 0.00 0.00 0.00 0.00 0.00 0.00 0.00 0.00 0.00 0.00 0.00 0.00 0.00
0.00 0.00 0.00 0.00 0.00 0.00 0.00 0.00 0.00 0.00 0.00 0.00 0.00 0.00 0.00 0.00 0.00 0.00 0.00 0.00 0.00 0.00 0.00 0.00 0.00 0.00 0.00 0.00 0.00 0.00 0.00 0.00 0.00 0.00 0.00 0.00 0.00 0.00 0.00 0.00 0.00 0.00 0.00 0.00 0.00 0.00 0.00 0.00 0.00
0.00 0.00 0.00 0.00 0.00 0.00 0.00 0.00 0.00 0.00 0.00 0.00 0.00 0.00 0.00 0.00 0.00 0.00 0.00 0.00 0.00 0.00 0.00 0.00 0.00 0.00 0.00 0.00 0.00 0.00 0.00 0.00 0.00 0.00 0.00 0.00 0.00 0.00 0.00 0.00 0.00 0.00 0.00 0.00 0.00 0.00 0.00 0.00 0.00
0.00 0.00 0.00 0.00 0.00 0.00 0.00 0.00 0.00 0.00 0.00 0.00 0.00 0.00 0.00 0.00 0.00 0.00 0.00 0.00 0.00 0.00 0.00 0.00 0.00 0.00 0.00 0.00 0.00 0.00 0.00 0.00 0.00 0.00 0.00 0.00 0.00 0.00 0.00 0.00 0.00 0.00 0.00 0.00 0.00 0.00 0.00 0.00 0.00
0.00 0.00 0.00 0.00 0.00 0.00 0.00 0.00 0.00 0.00 0.00 0.00 0.00 0.00 0.00 0.00 0.00 0.00 0.00 0.00 0.00 0.00 0.00 0.00 0.00 0.00 0.00 0.00 0.00 0.00 0.00 0.00 0.00 0.00 0.00 0.00 0.00 0.00 0.00 0.00 0.00 0.00 0.00 0.00 0.00 0.00 0.00 0.00 0.00
0.00 0.00 0.00 0.00 0.00 0.00 0.00 0.00 0.00 0.00 0.00 0.00 0.00 0.00 0.00 0.00 0.00 0.00 0.00 0.00 0.00 0.00 0.00 0.00 0.00 0.00 0.00 0.00 0.00 0.00 0.00 0.00 0.00 0.00 0.00 0.00 0.00 0.00 0.00 0.00 0.00 0.00 0.00 0.00 0.00 0.00 0.00 0.01 0.02
0.00 0.00 0.00 0.00 0.00 0.00 0.00 0.00 0.00 0.00 0.00 0.00 0.00 0.00 0.00 0.00 0.00 0.00 0.00 0.00 0.00 0.00 0.00 0.00 0.00 0.00 0.00 0.00 0.00 0.00 0.00 0.00 0.00 0.00 0.00 0.00 0.00 0.00 0.00 0.00 0.00 0.00 0.00 0.00 0.00 0.00 0.01 0.01 0.02
0.00 0.00 0.00 0.00 0.00 0.00 0.00 0.00 0.00 0.00 0.00 0.00 0.00 0.00 0.00 0.00 0.00 0.00 0.00 0.00 0.00 0.00 0.00 0.00 0.00 0.00 0.00 0.00 0.00 0.00 0.00 0.00 0.00 0.00 0.00 0.00 0.00 0.00 0.00 0.00 0.00 0.00 0.00 0.00 0.00 0.00 0.01 0.02 0.02
0.00 0.00 0.00 0.00 0.00 0.00 0.00 0.00 0.00 0.00 0.00 0.00 0.00 0.00 0.00 0.00 0.00 0.00 0.00 0.00 0.00 0.00 0.00 0.00 0.00 0.00 0.00 0.00 0.00 0.00 0.00 0.00 0.00 0.00 0.00 0.00 0.00 0.00 0.00 0.00 0.00 0.00 0.00 0.00 0.00 0.01 0.01 0.01 0.02
0.00 0.00 0.00 0.00 0.00 0.00 0.00 0.00 0.00 0.00 0.00 0.00 0.00 0.00 0.00 0.00 0.00 0.00 0.00 0.00 0.00 0.00 0.00 0.00 0.00 0.00 0.00 0.00 0.00 0.00 0.00 0.00 0.00 0.00 0.00 0.00 0.00 0.00 0.00 0.00 0.00 0.00 0.00 0.00 0.01 0.01 0.01 0.01 0.02
0.00 0.00 0.00 0.00 0.00 0.00 0.00 0.00 0.00 0.00 0.00 0.00 0.00 0.00 0.00 0.00 0.00 0.00 0.00 0.00 0.00 0.00 0.00 0.00 0.00 0.00 0.00 0.00 0.00 0.00 0.00 0.00 0.00 0.00 0.00 0.00 0.00 0.00 0.00 0.00 0.00 0.00 0.00 0.00 0.00 0.01 0.01 0.01 0.02
0.00 0.00 0.00 0.00 0.00 0.00 0.00 0.00 0.00 0.00 0.00 0.00 0.00 0.00 0.00 0.00 0.00 0.00 0.00 0.00 0.00 0.00 0.00 0.00 0.00 0.00 0.00 0.00 0.00 0.00 0.00 0.00 0.00 0.00 0.00 0.00 0.00 0.00 0.00 0.00 0.00 0.00 0.00 0.00 0.00 0.01 0.00 0.00 0.01
0.00 0.00 0.00 0.00 0.00 0.00 0.00 0.00 0.00 0.00 0.00 0.00 0.00 0.00 0.00 0.00 0.00 0.00 0.00 0.00 0.00 0.00 0.00 0.00 0.00 0.00 0.00 0.00 0.00 0.00 0.00 0.00 0.00 0.00 0.00 0.00 0.00 0.00 0.00 0.00 0.00 0.00 0.00 0.00 0.01 0.00 0.00 0.00 0.00
0.00 0.00 0.00 0.00 0.00 0.00 0.00 0.00 0.00 0.00 0.00 0.00 0.00 0.00 0.00 0.00 0.00 0.00 0.00 0.00 0.00 0.00 0.00 0.00 0.00 0.00 0.00 0.00 0.00 0.00 0.00 0.00 0.00 0.00 0.00 0.00 0.00 0.00 0.00 0.00 0.00 0.00 0.00 0.00 0.01 0.00 0.00 0.00 0.00
MSLP
1013.81 1014.42 1015.42 1016.74 1018.27 1019.85 1021.31 1022.52 1023.42 1023.99 1024.33 1024.57 1024.85 1025.28 1025.94 1026.82 1027.84 1028.90 1029.85 1030.58 1031.03 1031.20 1031.14 1030.92 1030.65 1030.41 1030.23 1030.13 1030.07 1030.01 1029.90 1029.70 1029.43 1029.11 1028.78 1028.48 1028.24 1028.06 1027.91 1027.77 1027.60 1027.35 1027.03 1026.63 1026.19 1025.73 1025.28 1024.86 1024.46
1014.18 1014.95 1016.09 1017.52 1019.09 1020.66 1022.07 1023.21 1024.02 1024.52 1024.82 1025.04 1025.34 1025.80 1026.49 1027.38 1028.39 1029.41 1030.30 1030.97 1031.37 1031.49 1031.39 1031.16 1030.89 1030.66 1030.50 1030.41 1030.36 1030.30 1030.20 1030.03 1029.78 1029.49 1029.19 1028.92 1028.69 1028.51 1028.35 1028.17 1027.95 1027.66 1027.30 1026.88 1026.43 1025.96 1025.52 1025.10 1024.71
1014.67 1015.57 1016.80 1018.26 1019.82 1021.32 1022.63 1023.66 1024.37 1024.82 1025.11 1025.37 1025.72 1026.25 1026.99 1027.91 1028.93 1029.91 1030.75 1031.35 1031.68 1031.76 1031.64 1031.41 1031.15 1030.93 1030.79 1030.70 1030.65 1030.59 1030.49 1030.32 1030.08 1029.81 1029.52 1029.25 1029.01 1028.80 1028.60 1028.38 1028.11 1027.78 1027.39 1026.95 1026.50 1026.05 1025.63 1025.25 1024.88
1015.22 1016.21 1017.49 1018.94 1020.42 1021.80 1022.97 1023.87 1024.50 1024.91 1025.21 1025.53 1025.96 1026.58 1027.39 1028.35 1029.36 1030.30 1031.07 1031.61 1031.90 1031.94 1031.82 1031.61 1031.38 1031.20 1031.08 1031.01 1030.96 1030.89 1030.77 1030.58 1030.33 1030.05 1029.75 1029.46 1029.20 1028.95 1028.70 1028.43 1028.12 1027.76 1027.35 1026.91 1026.48 1026.07 1025.69 1025.34 1025.02
1015.79 1016.86 1018.13 1019.52 1020.88 1022.11 1023.13 1023.90 1024.44 1024.82 1025.15 1025.54 1026.07 1026.78 1027.65 1028.62 1029.61 1030.50 1031.21 1031.69 1031.93 1031.97 1031.87 1031.71 1031.55 1031.42 1031.35 1031.30 1031.26 1031.17 1031.03 1030.81 1030.53 1030.22 1029.90 1029.59 1029.30 1029.02 1028.73 1028.42 1028.08 1027.70 1027.29 1026.87 1026.46 1026.09 1025.76 1025.46 1025.17
1016.39 1017.48 1018.73 1020.02 1021.23 1022.29 1023.14 1023.78 1024.24 1024.61 1024.99 1025.45 1026.07 1026.85 1027.76 1028.73 1029.67 1030.49 1031.13 1031.55 1031.77 1031.83 1031.79 1031.71 1031.63 1031.59 1031.58 1031.58 1031.54 1031.44 1031.27 1031.02 1030.71 1030.37 1030.03 1029.70 1029.39 1029.09 1028.78 1028.46 1028.10 1027.71 1027.31 1026.91 1026.54 1026.20 1025.90 1025.62 1025.35
1017.00 1018.11 1019.30 1020.46 1021.51 1022.40 1023.08 1023.60 1023.99 1024.36 1024.78 1025.31 1026.00 1026.82 1027.75 1028.69 1029.56 1030.30 1030.86 1031.24 1031.45 1031.55 1031.58 1031.60 1031.64 1031.71 1031.77 1031.81 1031.79 1031.69 1031.50 1031.22 1030.89 1030.54 1030.19 1029.86 1029.55 1029.25 1028.94 1028.62 1028.26 1027.89 1027.50 1027.11 1026.76 1026.43 1026.14 1025.86 1025.59
1017.67 1018.76 1019.86 1020.89 1021.78 1022.48 1023.02 1023.42 1023.76 1024.13 1024.58 1025.18 1025.91 1026.76 1027.67 1028.55 1029.35 1030.00 1030.49 1030.83 1031.04 1031.19 1031.32 1031.45 1031.61 1031.77 1031.92 1032.00 1032.01 1031.90 1031.70 1031.42 1031.09 1030.75 1030.42 1030.11 1029.82 1029.55 1029.26 1028.94 1028.60 1028.23 1027.85 1027.47 1027.11 1026.78 1026.47 1026.17 1025.87
1018.38 1019.44 1020.45 1021.34 1022.06 1022.60 1022.99 1023.30 1023.60 1023.96 1024.45 1025.08 1025.84 1026.69 1027.55 1028.37 1029.09 1029.66 1030.08 1030.39 1030.63 1030.84 1031.06 1031.30 1031.57 1031.82 1032.03 1032.16 1032.18 1032.08 1031.88 1031.61 1031.30 1030.99 1030.71 1030.44 1030.20 1029.96 1029.70 1029.40 1029.07 1028.70 1028.31 1027.93 1027.55 1027.20 1026.86 1026.52 1026.17
1019.14 1020.15 1021.06 1021.80 1022.37 1022.76 1023.03 1023.26 1023.52 1023.88 1024.38 1025.03 1025.80 1026.62 1027.44 1028.19 1028.82 1029.32 1029.70 1030.01 1030.28 1030.55 1030.86 1031.20 1031.55 1031.87 1032.12 1032.27 1032.29 1032.20 1032.01 1031.76 1031.49 1031.24 1031.01 1030.82 1030.63 1030.43 1030.20 1029.92 1029.59 1029.21 1028.81 1028.41 1028.01 1027.62 1027.24 1026.86 1026.46
1019.91 1020.86 1021.66 1022.27 1022.69 1022.95 1023.12 1023.28 1023.51 1023.87 1024.38 1025.03 1025.77 1026.56 1027.32 1027.99 1028.56 1029.01 1029.37 1029.69 1030.00 1030.35 1030.73 1031.15 1031.55 1031.91 1032.18 1032.32 1032.34 1032.24 1032.06 1031.85 1031.63 1031.44 1031.29 1031.16 1031.03 1030.88 1030.67 1030.40 1030.07 1029.68 1029.26 1028.83 1028.40 1027.98 1027.57 1027.15 1026.71
1020.62 1021.50 1022.19 1022.68 1022.98 1023.14 1023.24 1023.35 1023.55 1023.90 1024.39 1025.02 1025.73 1026.46 1027.16 1027.77 1028.28 1028.70 1029.07 1029.42 1029.79 1030.21 1030.66 1031.13 1031.58 1031.94 1032.20 1032.32 1032.31 1032.20 1032.03 1031.84 1031.67 1031.55 1031.46 1031.41 1031.34 1031.22 1031.04 1030.77 1030.43 1030.02 1029.57 1029.12 1028.67 1028.24 1027.81 1027.37 1026.91
1021.23 1022.02 1022.61 1022.99 1023.20 1023.28 1023.33 1023.41 1023.60 1023.93 1024.40 1024.99 1025.64 1026.30 1026.92 1027.47 1027.94 1028.36 1028.74 1029.15 1029.59 1030.08 1030.60 1031.12 1031.58 1031.94 1032.16 1032.24 1032.19 1032.06 1031.89 1031.72 1031.60 1031.54 1031.52 1031.52 1031.50 1031.42 1031.25 1030.98 1030.62 1030.19 1029.73 1029.26 1028.80 1028.36 1027.93 1027.50 1027.04
1021.66 1022.36 1022.85 1023.15 1023.29 1023.34 1023.36 1023.43 1023.61 1023.92 1024.35 1024.88 1025.46 1026.03 1026.57 1027.06 1027.50 1027.92 1028.35 1028.81 1029.34 1029.91 1030.50 1031.05 1031.52 1031.86 1032.05 1032.09 1032.01 1031.84 1031.66 1031.51 1031.43 1031.41 1031.44 1031.49 1031.50 1031.45 1031.29 1031.02 1030.65 1030.21 1029.74 1029.26 1028.81 1028.37 1027.95 1027.53 1027.08
1021.90 1022.50 1022.91 1023.14 1023.25 1023.28 1023.31 1023.39 1023.57 1023.85 1024.23 1024.68 1025.16 1025.64 1026.09 1026.52 1026.93 1027.35 1027.83 1028.37 1028.97 1029.63 1030.28 1030.88 1031.37 1031.70 1031.87 1031.88 1031.76 1031.58 1031.40 1031.26 1031.19 1031.20 1031.27 1031.35 1031.39 1031.35 1031.20 1030.93 1030.56 1030.12 1029.65 1029.17 1028.72 1028.29 1027.89 1027.48 1027.05
1021.95 1022.45 1022.79 1022.98 1023.08 1023.13 1023.18 1023.28 1023.46 1023.71 1024.03 1024.39 1024.76 1025.13 1025.49 1025.85 1026.23 1026.66 1027.18 1027.79 1028.48 1029.22 1029.94 1030.60 1031.12 1031.46 1031.63 1031.63 1031.50 1031.32 1031.13 1031.00 1030.95 1030.97 1031.06 1031.15 1031.20 1031.17 1031.03 1030.77 1030.41 1029.97 1029.51 1029.04 1028.59 1028.17 1027.76 1027.36 1026.93
1021.87 1022.27 1022.54 1022.72 1022.82 1022.90 1022.99 1023.11 1023.28 1023.49 1023.74 1024.00 1024.27 1024.52 1024.78 1025.07 1025.43 1025.88 1026.44 1027.12 1027.89 1028.70 1029.50 1030.21 1030.78 1031.16 1031.35 1031.37 1031.27 1031.09 1030.92 1030.79 1030.74 1030.77 1030.85 1030.94 1030.99 1030.96 1030.83 1030.58 1030.23 1029.81 1029.35 1028.89 1028.44 1028.01 1027.60 1027.18 1026.74
1021.71 1022.02 1022.25 1022.41 1022.53 1022.64 1022.75 1022.88 1023.04 1023.20 1023.37 1023.52 1023.67 1023.83 1024.00 1024.24 1024.58 1025.04 1025.65 1026.39 1027.23 1028.12 1028.99 1029.77 1030.39 1030.83 1031.07 1031.14 1031.07 1030.93 1030.78 1030.66 1030.61 1030.62 1030.68 1030.75 1030.78 1030.75 1030.62 1030.38 1030.05 1029.65 1029.21 1028.74 1028.29 1027.84 1027.40 1026.95 1026.48
1021.54 1021.78 1021.97 1022.12 1022.25 1022.38 1022.50 1022.62 1022.73 1022.82 1022.89 1022.95 1022.99 1023.06 1023.18 1023.39 1023.73 1024.22 1024.88 1025.68 1026.58 1027.53 1028.46 1029.30 1029.99 1030.50 1030.81 1030.94 1030.94 1030.85 1030.72 1030.62 1030.55 1030.53 1030.55 1030.58 1030.58 1030.53 1030.39 1030.17 1029.85 1029.47 1029.04 1028.58 1028.11 1027.64 1027.16 1026.67 1026.15
1021.43 1021.61 1021.77 1021.91 1022.04 1022.16 1022.26 1022.33 1022.36 1022.35 1022.31 1022.26 1022.22 1022.23 1022.33 1022.54 1022.92 1023.46 1024.18 1025.04 1026.00 1027.00 1027.98 1028.87 1029.61 1030.18 1030.56 1030.77 1030.84 1030.81 1030.72 1030.62 1030.54 1030.48 1030.44 1030.41 1030.36 1030.27 1030.12 1029.90 1029.61 1029.25 1028.83 1028.38 1027.90 1027.40 1026.88 1026.34 1025.78
1021.40 1021.55 1021.69 1021.82 1021.93 1022.00 1022.03 1022.00 1021.91 1021.78 1021.62 1021.46 1021.36 1021.34 1021.45 1021.71 1022.16 1022.79 1023.59 1024.51 1025.52 1026.56 1027.56 1028.48 1029.26 1029.88 1030.32 1030.61 1030.75 1030.77 1030.73 1030.64 1030.53 1030.42 1030.32 1030.22 1030.11 1029.97 1029.79 1029.57 1029.29 1028.95 1028.55 1028.11 1027.63 1027.11 1026.55 1025.98 1025.38
1021.48 1021.62 1021.75 1021.86 1021.92 1021.91 1021.82 1021.65 1021.40 1021.11 1020.81 1020.56 1020.40 1020.39 1020.55 1020.91 1021.47 1022.21 1023.10 1024.10 1025.15 1026.21 1027.22 1028.14 1028.93 1029.57 1030.06 1030.40 1030.60 1030.69 1030.68 1030.60 1030.47 1030.32 1030.15 1029.97 1029.79 1029.60 1029.39 1029.15 1028.88 1028.56 1028.19 1027.77 1027.29 1026.77 1026.20 1025.60 1024.97
1021.63 1021.79 1021.92 1022.00 1022.00 1021.88 1021.64 1021.29 1020.84 1020.37 1019.92 1019.57 1019.38 1019.39 1019.64 1020.12 1020.82 1021.70 1022.71 1023.78 1024.87 1025.94 1026.93 1027.82 1028.59 1029.23 1029.74 1030.12 1030.37 1030.50 1030.53 1030.46 1030.32 1030.13 1029.91 1029.66 1029.42 1029.17 1028.92 1028.67 1028.41 1028.11 1027.77 1027.37 1026.92 1026.40 1025.83 1025.22 1024.58
1021.85 1022.04 1022.18 1022.23 1022.15 1021.90 1021.49 1020.93 1020.27 1019.60 1019.00 1018.55 1018.34 1018.39 1018.74 1019.36 1020.22 1021.25 1022.37 1023.52 1024.65 1025.70 1026.66 1027.50 1028.22 1028.83 1029.33 1029.73 1030.01 1030.18 1030.25 1030.21 1030.07 1029.86 1029.60 1029.31 1029.01 1028.72 1028.44 1028.18 1027.91 1027.63 1027.32 1026.95 1026.52 1026.03 1025.47 1024.87 1024.23
1022.07 1022.31 1022.47 1022.49 1022.32 1021.94 1021.35 1020.59 1019.72 1018.86 1018.11 1017.58 1017.34 1017.44 1017.89 1018.65 1019.66 1020.83 1022.07 1023.29 1024.44 1025.47 1026.38 1027.15 1027.81 1028.37 1028.84 1029.23 1029.53 1029.74 1029.84 1029.83 1029.72 1029.52 1029.24 1028.93 1028.60 1028.28 1027.98 1027.70 1027.44 1027.17 1026.88 1026.53 1026.13 1025.66 1025.12 1024.53 1023.91
1022.27 1022.54 1022.72 1022.71 1022.47 1021.97 1021.22 1020.27 1019.22 1018.19 1017.31 1016.70 1016.45 1016.59 1017.13 1018.01 1019.15 1020.44 1021.77 1023.05 1024.21 1025.22 1026.06 1026.77 1027.35 1027.84 1028.27 1028.64 1028.95 1029.19 1029.34 1029.37 1029.30 1029.12 1028.86 1028.55 1028.22 1027.89 1027.58 1027.29 1027.03 1026.76 1026.47 1026.14 1025.75 1025.30 1024.78 1024.20 1023.59
1022.38 1022.69 1022.86 1022.83 1022.54 1021.94 1021.06 1019.97 1018.78 1017.62 1016.64 1015.98 1015.71 1015.88 1016.48 1017.44 1018.68 1020.06 1021.46 1022.77 1023.94 1024.92 1025.71 1026.35 1026.86 1027.29 1027.67 1028.02 1028.33 1028.59 1028.77 1028.86 1028.83 1028.70 1028.48 1028.20 1027.88 1027.55 1027.24 1026.94 1026.67 1026.39 1026.09 1025.76 1025.37 1024.92 1024.41 1023.84 1023.24
1022.37 1022.68 1022.85 1022.79 1022.45 1021.78 1020.83 1019.66 1018.38 1017.14 1016.11 1015.41 1015.13 1015.31 1015.95 1016.97 1018.25 1019.68 1021.11 1022.44 1023.60 1024.56 1025.31 1025.90 1026.35 1026.74 1027.09 1027.41 1027.72 1027.99 1028.21 1028.34 1028.36 1028.28 1028.11 1027.86 1027.57 1027.26 1026.94 1026.64 1026.34 1026.03 1025.71 1025.34 1024.94 1024.47 1023.96 1023.40 1022.80
1022.22 1022.50 1022.62 1022.53 1022.14 1021.45 1020.46 1019.26 1017.96 1016.71 1015.67 1014.97 1014.69 1014.88 1015.52 1016.54 1017.84 1019.27 1020.70 1022.03 1023.18 1024.12 1024.86 1025.42 1025.86 1026.22 1026.55 1026.86 1027.16 1027.44 1027.67 1027.83 1027.90 1027.87 1027.74 1027.53 1027.27 1026.96 1026.64 1026.31 1025.98 1025.63 1025.26 1024.85 1024.41 1023.92 1023.39 1022.83 1022.24
1021.93 1022.12 1022.17 1022.02 1021.59 1020.88 1019.90 1018.73 1017.47 1016.27 1015.27 1014.59 1014.33 1014.52 1015.14 1016.13 1017.39 1018.78 1020.19 1021.50 1022.65 1023.60 1024.35 1024.92 1025.37 1025.74 1026.07 1026.38 1026.68 1026.96 1027.20 1027.37 1027.46 1027.45 1027.35 1027.17 1026.92 1026.62 1026.29 1025.93 1025.55 1025.14 1024.71 1024.24 1023.74 1023.21 1022.66 1022.10 1021.52
Thickness
5748 5751 5753 5743 5722 5708 5689 5689 5690 5680 5676 5672 5674 5671 5657 5646 5645 5628 5618 5620 5619 5618 5616 5615 5616 5616 5617 5617 5617 5617 5617 5616 5616 5616 5616 5616 5616 5616 5617 5617 5618 5618 5619 5621 5622 5623 5625 5628 5631
5751 5755 5748 5733 5712 5694 5682 5688 5684 5679 5674 5673 5674 5671 5659 5643 5638 5629 5621 5620 5619 5616 5613 5611 5612 5612 5612 5612 5611 5611 5610 5609 5609 5608 5608 5607 5607 5607 5608 5607 5607 5607 5608 5609 5610 5612 5613 5616 5618
5753 5756 5740 5727 5706 5693 5684 5687 5676 5674 5676 5675 5667 5663 5656 5642 5639 5629 5622 5620 5618 5613 5610 5607 5608 5607 5607 5606 5605 5604 5603 5602 5601 5600 5599 5598 5598 5598 5597 5597 5596 5596 5596 5597 5598 5599 5600 5602 5605
5753 5748 5741 5719 5695 5697 5696 5686 5679 5673 5674 5674 5666 5652 5645 5641 5637 5627 5622 5619 5616 5611 5607 5604 5603 5602 5601 5600 5598 5597 5595 5594 5592 5591 5589 5588 5588 5587 5586 5585 5584 5583 5583 5584 5584 5585 5586 5588 5590
5753 5741 5726 5702 5693 5697 5696 5690 5686 5678 5673 5673 5669 5651 5637 5633 5630 5624 5620 5617 5613 5608 5605 5601 5599 5597 5595 5593 5591 5589 5587 5585 5583 5581 5579 5578 5577 5576 5575 5573 5571 5570 5570 5569 5569 5570 5571 5572 5574
5744 5740 5718 5699 5690 5693 5693 5692 5692 5683 5675 5672 5669 5652 5635 5631 5627 5622 5618 5614 5610 5606 5602 5599 5596 5593 5590 5587 5583 5581 5578 5576 5574 5572 5569 5567 5566 5564 5562 5560 5558 5556 5555 5554 5553 5553 5553 5554 5556
5738 5730 5719 5704 5688 5688 5690 5694 5689 5682 5673 5669 5670 5653 5634 5629 5625 5620 5616 5611 5606 5602 5599 5595 5591 5587 5584 5581 5577 5573 5570 5567 5564 5561 5558 5555 5553 5550 5547 5544 5542 5540 5538 5536 5535 5534 5533 5533 5535
5744 5734 5719 5708 5694 5690 5691 5690 5690 5683 5674 5672 5670 5657 5639 5631 5624 5618 5613 5609 5604 5599 5594 5590 5585 5581 5577 5573 5569 5565 5562 5557 5554 5550 5547 5543 5539 5535 5532 5528 5526 5523 5519 5516 5514 5511 5510 5509 5509
5748 5728 5712 5710 5703 5692 5689 5682 5679 5677 5668 5664 5662 5655 5653 5636 5624 5616 5610 5605 5601 5596 5590 5584 5578 5574 5569 5565 5561 5557 5552 5548 5544 5539 5535 5531 5526 5522 5518 5513 5509 5504 5499 5493 5489 5484 5481 5479 5477
5735 5716 5704 5705 5709 5696 5687 5682 5672 5668 5661 5655 5651 5644 5638 5629 5621 5614 5610 5606 5600 5593 5585 5578 5572 5567 5562 5557 5553 5548 5543 5538 5534 5529 5524 5519 5514 5508 5503 5497 5491 5484 5477 5469 5462 5454 5447 5442 5440
5721 5703 5701 5699 5704 5697 5685 5680 5673 5668 5660 5660 5651 5640 5631 5624 5619 5614 5611 5606 5597 5588 5580 5573 5566 5560 5555 5550 5545 5540 5535 5530 5525 5519 5513 5507 5500 5493 5487 5479 5472 5463 5454 5444 5434 5423 5414 5406 5401
5708 5701 5700 5692 5694 5690 5683 5678 5670 5667 5668 5669 5663 5647 5633 5624 5619 5615 5610 5603 5593 5584 5575 5567 5561 5554 5548 5542 5537 5532 5527 5521 5515 5509 5502 5495 5487 5479 5470 5461 5451 5439 5427 5415 5402 5390 5380 5372 5366
5699 5691 5690 5685 5687 5685 5680 5673 5670 5669 5668 5663 5657 5644 5633 5625 5620 5615 5609 5600 5590 5580 5571 5563 5556 5549 5543 5537 5530 5525 5518 5512 5505 5498 5490 5482 5473 5463 5453 5440 5427 5412 5396 5381 5367 5356 5347 5340 5335
5697 5691 5685 5682 5679 5677 5672 5671 5666 5668 5667 5658 5649 5639 5631 5625 5621 5614 5606 5596 5587 5577 5568 5559 5551 5544 5537 5531 5524 5517 5510 5502 5495 5487 5478 5468 5457 5445 5432 5417 5400 5383 5365 5349 5336 5327 5319 5312 5307
5697 5686 5680 5680 5678 5674 5669 5666 5668 5672 5662 5653 5645 5637 5631 5626 5621 5614 5605 5595 5586 5576 5566 5555 5546 5538 5531 5524 5517 5509 5501 5494 5485 5475 5464 5453 5440 5425 5409 5391 5372 5355 5338 5324 5313 5303 5295 5288 5281
5697 5690 5679 5679 5679 5670 5661 5665 5679 5672 5659 5650 5643 5637 5631 5627 5622 5614 5606 5595 5585 5574 5563 5552 5542 5533 5526 5518 5509 5502 5493 5484 5474 5463 5450 5437 5421 5404 5386 5366 5347 5330 5315 5302 5292 5282 5273 5264 5255
5691 5690 5692 5675 5679 5671 5661 5665 5669 5666 5658 5651 5644 5639 5633 5627 5622 5615 5607 5596 5584 5573 5561 5549 5538 5528 5520 5511 5502 5494 5484 5473 5462 5450 5436 5421 5403 5384 5364 5344 5326 5310 5296 5284 5273 5263 5251 5241 5232
5692 5696 5698 5685 5677 5673 5664 5666 5673 5664 5658 5652 5648 5642 5637 5632 5625 5617 5608 5596 5584 5571 5558 5546 5534 5524 5514 5504 5494 5484 5474 5462 5450 5437 5422 5405 5387 5367 5346 5326 5309 5293 5280 5268 5256 5246 5235 5222 5209
5697 5693 5691 5689 5680 5673 5669 5672 5679 5667 5658 5653 5651 5647 5642 5638 5632 5622 5610 5596 5582 5569 5555 5542 5530 5518 5507 5496 5485 5473 5462 5451 5439 5425 5408 5391 5371 5350 5329 5311 5294 5279 5265 5252 5240 5229 5219 5206 5191
5695 5690 5691 5687 5677 5674 5672 5674 5684 5679 5665 5660 5655 5652 5647 5642 5634 5624 5611 5596 5582 5568 5553 5539 5526 5513 5501 5489 5476 5465 5453 5441 5428 5414 5396 5377 5356 5335 5315 5297 5282 5267 5253 5241 5227 5214 5202 5191 5177
5696 5691 5684 5679 5683 5680 5668 5675 5680 5680 5675 5666 5661 5657 5654 5647 5638 5627 5613 5597 5581 5566 5552 5538 5521 5506 5494 5481 5468 5456 5444 5431 5417 5401 5382 5363 5343 5323 5304 5286 5271 5256 5242 5229 5216 5202 5187 5176 5168
5689 5686 5682 5677 5668 5675 5675 5662 5675 5674 5667 5666 5662 5657 5654 5650 5642 5630 5615 5598 5581 5565 5549 5533 5516 5500 5487 5474 5460 5446 5432 5418 5405 5389 5371 5352 5332 5312 5293 5277 5261 5247 5233 5219 5206 5191 5175 5163 5157
5687 5684 5678 5675 5671 5670 5676 5665 5678 5680 5670 5671 5668 5663 5657 5651 5643 5631 5617 5599 5581 5562 5544 5527 5511 5494 5480 5467 5453 5438 5424 5410 5395 5379 5361 5342 5322 5302 5285 5269 5254 5239 5225 5212 5198 5183 5169 5156 5147
5686 5682 5677 5672 5667 5663 5682 5670 5677 5679 5686 5685 5678 5671 5663 5654 5643 5631 5615 5596 5576 5557 5539 5522 5505 5489 5475 5460 5446 5431 5416 5401 5385 5369 5351 5332 5313 5295 5278 5263 5248 5233 5219 5206 5192 5178 5164 5152 5144
5678 5672 5666 5662 5653 5671 5682 5671 5677 5698 5698 5692 5682 5673 5664 5654 5640 5625 5608 5591 5571 5552 5534 5517 5501 5485 5470 5455 5440 5425 5410 5394 5378 5361 5342 5324 5306 5289 5273 5258 5243 5229 5215 5201 5187 5173 5159 5149 5140
5685 5676 5662 5656 5664 5672 5671 5666 5691 5703 5699 5693 5684 5674 5663 5651 5637 5623 5606 5588 5569 5549 5531 5514 5498 5482 5467 5451 5435 5420 5404 5388 5372 5354 5336 5317 5300 5284 5269 5254 5239 5226 5212 5197 5183 5169 5156 5146 5138
5678 5677 5674 5662 5668 5658 5668 5688 5699 5697 5690 5683 5675 5666 5657 5648 5636 5620 5603 5585 5567 5548 5530 5513 5496 5480 5464 5447 5430 5414 5399 5383 5366 5349 5331 5313 5297 5281 5266 5251 5237 5223 5209 5195 5181 5167 5154 5144 5136
5668 5669 5663 5656 5648 5643 5666 5680 5680 5678 5680 5679 5671 5664 5658 5649 5634 5618 5601 5583 5566 5548 5529 5511 5495 5478 5462 5444 5427 5411 5395 5378 5362 5345 5327 5311 5294 5278 5263 5249 5236 5222 5208 5194 5180 5166 5154 5144 5136
5660 5661 5659 5659 5657 5638 5640 5665 5704 5694 5694 5687 5680 5674 5664 5650 5634 5617 5600 5582 5564 5545 5527 5509 5492 5476 5459 5441 5424 5407 5391 5375 5359 5342 5325 5309 5292 5276 5262 5248 5235 5221 5208 5194 5180 5167 5155 5145 5137
5673 5670 5663 5648 5650 5646 5634 5658 5707 5704 5699 5691 5682 5675 5666 5652 5633 5615 5597 5579 5561 5543 5525 5507 5491 5474 5457 5440 5422 5404 5388 5372 5356 5340 5324 5307 5291 5275 5261 5248 5235 5221 5208 5195 5182 5170 5158 5149 5141